Weather in Ichalkaranji

India     16°41′38″N   74°28′25″E
temp.,
°C
wind,
m/s
gust,
m/s
humid.,
%
clouds,
%
prec.,
mm/h
press.,
hPa
HPBL,
m
28 september, tue
tue2823:30+21wsw51094100 4.1 1006499
02:30+21wsw41093100 0.9 1004464
05:30+21wsw41095100 3.1 1004526
08:30+21sw61095100 1.9 1007544
11:30+21wsw61092100 4.0 1007624
14:30+21wsw61389100 0.9 1005668
17:30+20wsw51388100 1.8 1005531
20:30+20wsw31094100 0.8 1007424
29 september, wed
wed2923:30+20sw3109697 1.3 1008447
02:30+20sw3997100 0.0 1006414
05:30+21sw41196100 0.1 1006463
08:30+22sw4118877 0.0 1008586
11:30+27sw897176 0.7 10081237
14:30+26wsw8107876 3.1 10061044
17:30+24wsw6108397 3.9 1006839
20:30+22sw369353 0.1 1009214
30 september, thu
thu3023:30+21ssw369474 0.1 1010159
02:30+21ssw229682 0.0 100854
05:30+20sw2296100 0.0 100848
08:30+23wsw368543 0.0 1010542
11:30+28wsw566453 0.1 10091337
14:30+28wsw666190 0.1 10061511
17:30+26w677414 0.3 1007734
20:30+23wsw369199 0.0 1010192
1 october, fri
fri123:30+22wsw359562 0.0 1011169
02:30+21wsw249681 0.0 1009116
05:30+21sw239697 0.0 100962
08:30+24wsw238367 0.0 1011370
11:30+28w336210 0.0 10091030
14:30+30w335596 0.3 10061676
17:30+26w577531 1.1 1006406
20:30+23wsw489057 1.3 1009223
2 october, sat
sat223:30+22w3594100 1.3 1009157
02:30+21w239474 0.1 100871
05:30+21wnw229476 0.1 100857
08:30+24wnw228233 0.0 1010276
11:30+28n2366100 0.1 10081083
14:30+29nne236485 5.6 1005953
17:30+27w227499 14.2 100651
20:30+24w3383100 3.9 100839